Temp
18 18 18 17 17 17 17 17 16 16 16 16 15 15 15 15 15 15 15 16 16 16 16 16 14 12 13 13 13 13 14 14 14
18 18 18 17 17 17 17 16 16 16 15 15 15 15 15 15 15 15 15 15 15 15 15 15 15 15 15 15 14 14 15 14 15
18 18 18 17 17 17 17 16 16 16 16 15 15 15 15 15 15 15 15 15 15 15 15 15 15 15 15 15 15 15 15 15 15
18 18 18 18 17 17 17 16 16 15 15 15 15 15 15 15 15 14 14 14 14 14 15 15 14 14 14 14 14 14 14 14 14
17 17 17 17 17 17 17 16 16 15 15 15 15 15 15 15 15 14 14 14 14 14 14 14 14 14 14 14 14 14 14 14 14
17 17 17 17 17 17 16 16 16 15 15 15 15 15 15 15 14 14 14 14 13 14 14 14 14 14 14 14 14 14 13 13 13
16 16 17 16 16 16 16 16 16 15 15 15 15 15 14 15 14 14 14 14 13 13 14 14 13 13 13 13 13 13 13 13 13
16 16 16 16 16 16 16 16 15 15 15 15 15 15 14 14 14 14 14 13 13 13 13 13 13 13 13 13 13 13 12 12 12
16 16 16 17 16 16 16 15 15 15 15 14 14 14 14 14 14 14 14 13 13 13 13 13 13 13 13 13 12 12 12 12 12
16 16 16 16 16 16 15 15 15 15 14 14 14 14 14 14 14 14 13 13 13 12 12 12 12 12 13 12 12 12 12 11 11
15 16 15 15 15 15 15 15 14 14 14 14 14 14 14 13 13 13 13 13 12 12 12 12 12 12 12 12 12 11 11 11 11
15 15 15 15 15 15 15 14 14 14 14 14 13 13 13 13 13 13 13 12 12 12 12 12 12 12 12 12 12 11 11 11 11
14 15 15 15 14 14 14 14 14 13 13 13 13 13 13 13 13 12 12 12 13 13 13 13 12 12 12 12 11 11 11 11 11
14 14 14 14 14 14 14 13 13 13 13 13 13 13 13 13 13 13 12 12 12 13 12 12 12 12 12 12 12 11 11 10 10
15 15 14 14 14 13 13 13 13 13 13 13 13 13 13 13 13 12 12 12 12 12 13 13 12 12 12 11 10 10 10 10 10
15 14 14 14 14 14 13 13 13 13 13 13 13 13 12 12 12 12 12 12 12 12 13 12 12 11 11 10 10 9 9 9 9
15 15 15 14 14 13 13 13 13 12 12 12 12 12 12 12 12 12 12 12 12 12 12 11 11 11 11 10 10 9 8 8 9
15 14 14 14 14 13 13 12 12 12 12 12 11 11 11 11 11 11 11 11 11 10 10 11 10 10 10 10 10 10 9 8 9
15 14 14 14 14 14 13 12 12 12 12 12 12 11 10 10 10 11 10 10 10 10 10 10 9 9 9 9 9 9 9 8 8
15 16 14 14 14 13 13 13 13 13 13 12 12 11 10 10 9 9 10 10 10 10 10 9 9 8 8 8 8 8 8 8 8
Height
1550 1551 1552 1554 1555 1557 1558 1559 1560 1560 1561 1561 1561 1562 1562 1562 1562 1562 1561 1561 1559 1559 1558 1558 1557 1557 1556 1556 1554 1553 1551 1550 1548
1552 1553 1554 1556 1557 1559 1560 1561 1562 1563 1563 1563 1563 1564 1564 1564 1563 1563 1563 1562 1562 1561 1560 1559 1558 1557 1556 1555 1554 1553 1552 1551 1549
1553 1555 1556 1558 1559 1561 1562 1563 1564 1565 1565 1565 1565 1565 1566 1565 1565 1564 1564 1564 1563 1563 1561 1561 1560 1559 1557 1556 1555 1554 1552 1551 1550
1555 1556 1558 1559 1561 1562 1563 1564 1565 1566 1566 1566 1566 1566 1566 1566 1566 1566 1565 1564 1565 1564 1562 1561 1561 1560 1558 1557 1556 1555 1553 1552 1551
1556 1557 1559 1560 1561 1563 1564 1565 1566 1567 1567 1567 1566 1567 1567 1567 1567 1567 1566 1565 1565 1564 1563 1562 1561 1560 1559 1557 1557 1556 1554 1553 1552
1557 1558 1560 1561 1562 1563 1564 1565 1566 1567 1567 1567 1567 1567 1567 1567 1567 1567 1566 1565 1565 1565 1563 1563 1562 1560 1559 1558 1557 1556 1555 1554 1553
1559 1559 1560 1561 1562 1563 1564 1565 1566 1567 1567 1567 1567 1568 1568 1567 1567 1567 1566 1565 1565 1565 1564 1563 1562 1560 1559 1558 1557 1555 1555 1554 1553
1558 1560 1561 1561 1562 1563 1563 1564 1565 1566 1567 1567 1567 1567 1567 1567 1567 1567 1566 1566 1565 1564 1563 1563 1561 1560 1559 1557 1556 1555 1554 1553 1552
1559 1560 1561 1561 1562 1563 1563 1563 1564 1565 1566 1566 1567 1567 1566 1566 1566 1566 1566 1565 1565 1564 1563 1562 1561 1560 1558 1557 1555 1555 1554 1553 1552
1558 1559 1560 1560 1561 1562 1563 1563 1563 1564 1564 1565 1566 1566 1565 1565 1565 1565 1565 1565 1564 1563 1562 1562 1561 1559 1557 1556 1554 1554 1553 1553 1552
1557 1557 1559 1559 1560 1561 1562 1562 1563 1562 1562 1563 1564 1564 1564 1564 1564 1564 1564 1563 1563 1562 1561 1560 1560 1558 1556 1555 1554 1552 1551 1550 1550
1556 1556 1558 1559 1559 1560 1560 1560 1561 1562 1561 1561 1562 1562 1563 1563 1562 1562 1562 1561 1561 1560 1559 1558 1558 1557 1555 1554 1553 1551 1550 1549 1548
1554 1555 1556 1557 1558 1558 1559 1558 1559 1560 1560 1561 1561 1561 1560 1560 1559 1559 1558 1558 1557 1556 1556 1556 1556 1555 1554 1553 1551 1549 1548 1548 1547
1551 1553 1554 1554 1555 1556 1557 1557 1558 1558 1559 1559 1560 1559 1558 1558 1557 1556 1555 1554 1553 1553 1552 1552 1552 1553 1552 1552 1550 1548 1546 1545 1544
1549 1550 1552 1552 1554 1555 1555 1555 1556 1556 1557 1557 1557 1556 1555 1554 1553 1551 1550 1549 1549 1549 1550 1550 1549 1550 1550 1548 1547 1546 1544 1542 1541
1548 1548 1549 1551 1552 1553 1553 1553 1554 1553 1554 1553 1553 1552 1551 1549 1548 1546 1545 1545 1545 1546 1546 1547 1547 1546 1547 1545 1545 1543 1542 1541 1539
1545 1546 1548 1549 1550 1550 1550 1550 1551 1550 1551 1551 1549 1545 1545 1544 1543 1543 1543 1542 1542 1542 1542 1544 1544 1544 1544 1543 1543 1541 1540 1539 1537
1540 1543 1545 1546 1547 1547 1546 1547 1547 1547 1547 1547 1548 1545 1542 1541 1542 1541 1541 1541 1540 1540 1540 1541 1541 1541 1541 1539 1538 1538 1537 1535 1532
1534 1538 1541 1542 1543 1542 1542 1543 1543 1542 1542 1542 1542 1540 1540 1539 1539 1538 1538 1539 1538 1538 1538 1537 1537 1538 1538 1536 1535 1535 1533 1532 1529
1527 1528 1535 1539 1539 1538 1537 1537 1537 1538 1537 1537 1537 1535 1535 1535 1536 1534 1534 1535 1535 1534 1534 1534 1534 1534 1534 1532 1532 1531 1529 1528 1526
Wind_Speed
20 21 21 21 20 19 18 16 15 14 12 13 13 12 13 13 14 13 13 13 13 13 12 10 9 9 6 4 5 8 10 10 11
21 20 20 19 18 17 16 15 13 12 10 10 9 9 9 9 11 12 12 13 12 12 12 11 10 9 8 8 8 10 11 12 12
20 19 19 18 17 16 14 13 11 9 8 6 6 7 7 7 8 10 12 12 12 11 11 11 11 10 10 10 10 11 12 12 12
19 18 17 16 15 13 12 11 10 7 6 3 3 3 5 6 6 8 9 11 11 11 11 11 11 10 10 10 11 12 12 12 12
17 16 15 14 13 11 10 9 8 6 5 3 1 2 4 5 6 6 8 10 11 11 11 11 10 10 10 11 11 12 12 12 12
15 14 12 11 10 9 8 7 6 5 4 4 3 4 4 5 5 6 7 9 10 11 10 10 10 10 10 11 11 11 12 12 12
12 11 10 9 8 7 6 6 5 5 4 3 3 3 4 5 5 5 6 8 9 10 10 9 10 10 11 11 10 10 11 11 11
12 9 8 7 6 5 4 4 4 4 2 3 4 3 4 5 6 5 6 7 9 10 10 10 10 11 11 11 11 10 10 10 10
10 7 7 7 6 5 4 3 3 3 1 1 1 2 3 4 5 5 6 7 8 9 11 12 12 12 13 13 13 11 10 9 9
7 8 7 6 6 5 4 3 3 3 2 3 3 3 4 5 6 6 7 8 9 9 10 10 13 14 14 14 14 13 11 10 10
7 7 7 6 5 5 5 4 4 3 3 4 6 6 7 7 8 8 9 10 12 11 11 10 13 12 13 12 15 13 14 13 12
8 7 8 7 7 6 5 4 5 5 6 7 7 6 6 10 11 12 14 14 15 13 14 12 13 13 12 14 14 14 13 13 15
11 10 9 9 7 7 6 5 6 8 9 8 7 10 11 13 13 15 17 18 17 16 17 15 11 14 15 15 16 17 19 16 13
14 13 12 11 10 9 8 7 8 8 10 11 12 14 16 18 18 22 22 23 19 18 16 15 14 13 13 15 18 20 19 17 15
12 13 12 11 11 9 7 9 11 12 13 15 15 18 19 20 22 24 20 19 17 14 13 12 12 9 13 15 16 16 17 17 16
9 8 9 8 8 9 12 13 12 15 15 18 20 21 23 23 23 23 19 15 14 14 14 16 10 9 12 14 14 12 13 15 17
17 15 12 13 12 14 14 15 16 17 17 19 22 26 23 15 7 9 8 8 11 10 11 12 11 10 12 10 15 19 20 21 23
22 19 16 16 17 18 17 18 19 20 22 21 18 10 5 7 11 11 12 11 9 10 12 13 13 12 15 12 10 15 21 24 22
17 13 17 22 22 22 23 25 25 24 27 25 23 23 25 21 11 6 9 10 14 15 16 16 15 16 16 15 15 14 19 25 17
22 25 24 26 23 23 24 23 23 24 24 23 21 19 20 22 19 22 20 18 19 21 21 19 17 16 16 14 15 19 21 22 14
Wind_Direction
130 126 123 123 125 128 130 125 119 115 109 92 90 83 76 66 61 56 53 48 48 47 48 44 67 70 68 43 23 12 7 2 4
129 125 125 128 129 129 129 129 125 122 122 106 92 82 70 60 60 50 47 43 41 40 41 38 31 27 23 11 3 1 3 2 5
131 129 128 129 128 129 128 135 139 133 119 99 89 82 61 56 53 47 41 37 32 31 32 31 27 22 17 11 6 2 3 3 5
137 134 132 130 128 129 130 134 143 141 134 112 64 51 50 44 40 36 32 30 23 21 21 21 18 14 14 11 8 6 4 2 3
144 142 140 137 136 136 137 139 146 158 171 186 274 328 358 19 15 19 25 25 15 13 12 10 8 8 9 8 7 6 3 1 0
149 147 146 145 145 146 149 154 162 175 193 220 247 279 319 345 357 5 15 19 9 7 5 1 359 2 4 4 4 4 2 0 359
158 156 156 158 161 165 169 174 181 190 197 217 238 258 297 322 330 351 360 1 1 0 357 351 350 353 354 354 356 356 356 355 356
171 172 176 181 187 188 190 184 183 179 197 243 250 264 290 316 335 336 344 347 348 347 348 343 340 340 339 338 341 342 343 347 347
177 182 190 194 196 197 191 190 182 191 215 222 272 302 334 326 323 330 329 331 336 337 339 337 337 335 335 329 321 322 326 335 337
199 196 191 191 193 191 197 202 206 217 244 283 304 316 314 311 311 313 316 321 322 323 331 333 338 338 335 324 316 316 310 307 312
213 208 209 211 200 206 212 221 230 243 274 297 305 311 314 312 313 305 309 316 315 308 313 316 329 330 323 335 330 313 306 295 290
230 229 226 220 220 225 230 240 261 274 283 291 297 299 309 310 307 304 301 305 311 302 293 298 303 305 310 318 327 319 319 318 289
247 246 238 233 232 234 239 253 272 280 288 296 300 305 299 298 296 294 296 298 295 291 291 294 290 286 312 308 313 316 317 312 311
248 245 243 237 237 241 245 255 278 299 302 302 298 296 297 295 292 294 290 290 281 275 270 277 277 278 289 306 302 308 307 310 307
237 230 234 234 238 246 264 267 276 287 292 293 291 291 294 293 289 294 291 282 278 267 272 273 275 288 290 299 302 299 301 305 304
217 212 221 243 257 257 258 266 274 282 290 290 290 288 289 294 290 288 285 285 277 264 271 269 261 279 306 318 314 310 308 317 312
231 231 242 245 259 259 267 273 274 275 279 283 291 297 301 300 305 299 282 294 288 255 258 248 259 281 296 309 318 322 318 316 313
223 229 244 252 257 261 266 270 274 275 271 272 272 290 279 288 302 293 299 305 270 239 248 255 263 276 282 274 283 304 309 316 317
220 240 257 253 265 261 266 271 276 277 279 280 272 267 265 277 296 275 286 284 258 259 264 261 261 279 269 270 296 305 317 320 314
220 242 249 266 264 272 276 282 283 281 281 281 280 273 266 264 254 265 270 271 263 269 268 268 265 262 261 269 297 307 317 321 306